{"data":{"norad_id":52363,"intl_designator":"2022-045AJ","name":"STARLINK-3830","alt_names":[],"object_type":"PAYLOAD","status":"ACTIVE","operator":null,"country":"US","launch_date":"2022-04-29","launch_site_code":"AFETR","launch_vehicle":null,"mission":null,"orbit_class":"UNKNOWN","rcs_meters":null,"size_class":null,"mass_kg":null,"dimensions":null,"purposes":["comms"],"wikipedia_slug":null,"has_3d_model":false,"image_url":null,"decayed_at":null,"tle_current":{"epoch":"2026-09-19T23:19:57.766368Z","epoch_age_seconds":105255,"freshness":"FRESH","line1":"1 52363U 22045AJ  26262.97219637  .00000044  00000+0  12438-4 0  9993","line2":"2 52363  53.1603  32.5125 0001047  87.7248 272.3874 15.34388472245318","mean_motion":15.34388472,"eccentricity":0.0001047,"inclination_deg":53.1603,"raan_deg":32.5125,"arg_perigee_deg":87.7248,"mean_anomaly_deg":272.3874,"bstar":1.2438e-5,"rev_number":24531,"period_min":93.848463168068,"perigee_km":462.02126450647,"apogee_km":463.45374362762,"semimajor_km":6840.874504067,"source":"CELESTRAK","updated_at":"2026-09-20T09:00:40.027066Z"}}}